Terminal Aerodrome Forecast
Issued by NWS Des Moines, IA

Home | Current Version | Previous Version | Text Only | Print | Product List | Glossary On
Versions: 1 2 3 4 5 6 7 8 9 10 11 12 13 14 15 16 17 18 19 20 21 22 23 24 25 26 27 28 29 30 31 32 33 34 35 36 37 38 39 40 41 42 43 44 45 46
000
FTUS43 KDMX 161257 AAA
TAFALO
TAF AMD
KALO 161257Z 1613/1712 12008KT 3SM BR BKN006
     FM161400 14012KT P6SM OVC060
     FM162000 13012KT P6SM VCTS OVC070CB
     FM170500 18008KT P6SM OVC080
     FM170900 23010G17KT P6SM OVC015=

USA.gov is the U.S. government's official web portal to all federal, state and local government web resources and services.